Tracking 23610 objects as of 19-Sep-2021
HD Live streaming from Space Station
objects crossing your sky now

MOLNIYA 1-52

Track MOLNIYA 1-52 now!
MOLNIYA 1-52 is classified as:


NORAD ID: 13012
Int'l Code: 1981-123A
Perigee: 784.1 km
Apogee: 39,585.4 km
Inclination: 62.5 °
Period: 717.8 minutes
Semi major axis: 26555 km
RCS: 16.6943 m2 (large)
Launch date: December 23, 1981
Source: Commonwealth of Independent States (former USSR) (CIS)
Launch site: TYURATAM MISSILE AND SPACE COMPLEX (TTMTR)
aabbcc
Your satellite tracking list
Your tracking list is empty




NASA's NSSDC Master Catalog

Two Line Element Set (TLE):
1 13012U 81123A   21261.29271178  .00001533  00000-0  10709-1 0  9991
2 13012  62.4567 319.8727 7305622 251.3051  22.3120  2.00615348291111
Source of the keplerian elements: AFSPC